www.pogodaiklimat.ru

Погода и климат >> Архив погоды >> Пакистан >> Фейсалабад


ПОГОДА в Фейсалабаде

  • Прогноз погоды в Фейсалабаде
  • Монитор погоды в Фейсалабаде

АРХИВ ПОГОДЫ в Фейсалабаде

Время (UTC), дата Ветер
(напр.,м/с)
 
Видим.   Явления Облачность Т
(С)
Тd
(С)
f
(%)
Тe
(С)
Тes
(С)
Комфортность P
(гПа)
Po
(гПа)
Тmin
(С)
Tmax
(С)
R
(мм)
R24
(мм)
S
(см)
12 14.04 СЗ 2 4000 м мгла 3/0
[Ci fib]
+32.5 +15.9 37 +35 +38 душно 1009.3 988.7 +33.2
15 14.04 С 1 4000 м мгла ясно +29.0 +17.2 49 +33 +33 очень
душно
1009.4 1000.0
18 14.04 СЗ 1 4000 м дым 4/0
[Ac trans]
+27.0 +18.5 60 +32 +32 очень
душно
1010.6 1000.0
21 14.04 СЗ 4 4000 м дым 4/0
[Ac trans]
+23.5 +17.1 67 +27 +27 душно 1010.7 989.5
00 15.04 С 1 4000 м дым 3/0
[Ac trans]
+21.5 +15.7 70 +25 +25 комфорт 1009.2 1000.0
03 15.04 штиль 0 4000 м дым 3/0
[Ci fib]
+24.5 +17.3 64 +28 +35 душно 1010.6 989.5 +21.0
06 15.04 СЗ 2 4000 м мгла 5/0
[Ac trans Ci fib]
+31.0 +16.9 43 +35 +51 опасность
солнечного
удара
1011.3 1000.0
09 15.04 СЗ 1 4000 м мгла 8/0
[Ac trans Ci fib]
+34.5 +15.6 32 +36 +49 душно 1008.8 1000.0
12 15.04 СЗ 4 4000 м мгла 9/6 300 м
[Sc Ac As]
+33.0 +14.4 33 +35 +35 душно 1005.9 985.4 +35.0
15 15.04 СЗ 6 2000 м гроза, ливневой дождь {метель} 10/5 900 м
[Cb cap As op]
+19.0 +18.2 95 +20 +20 1012.7 991.1 14
18 15.04 СВ 6 4000 м гроза, ливневой дождь 10/6 900 м
[Cb cap As op]
+20.0 +17.6 86 +23 +23 комфорт 1009.6 988.2 10
21 15.04 СВ 3 4000 м гроза, ливневой дождь 10/8 900 м
[Cb cap As op]
+20.0 +17.6 86 +23 +23 комфорт 1009.5 988.1 1
00 16.04 В 4 4000 м зарница {гроза, дождь} 9/5 900 м
[Cb cap As op]
+20.0 +16.7 81 +23 +23 комфорт 1008.0 986.6 0.0
03 16.04 В 1 4000 м дым 9/6 300 м
[Sc As op]
+21.0 +17.8 82 +26 +27 душно 1010.1 1000.0 +18.5
06 16.04 ЮВ 3 4000 м дым 8/3 1200 м
[Sc Ac As]
+25.0 +17.9 65 +29 +34 душно 1010.6 1000.0
09 16.04 ЮВ 3 4000 м гроза без осадков 8/5 900 м
[Cb cap Ac As]
+28.0 +17.9 54 +32 +37 душно 1008.0 1000.0
12 16.04 В 3 4000 м дым {гроза, дождь} 8/4 1200 м
[Sc diur, vesp Ac As]
+27.0 +18.5 60 +32 +33 очень
душно
1006.6 1000.0 +28.5 0.0
15 16.04 В 1 4000 м дым {гроза} 9/4 1200 м
[Sc Ac As]
+23.5 +16.2 64 +27 +27 душно 1006.6 1000.0
18 16.04 С 4 4000 м гроза без осадков 9/6 900 м
[Cb cap Ac As]
+17.0 +15.3 90 +16 +16 1011.0 989.3 6
21 16.04 СВ 4 4000 м зарница {гроза, дождь} 10/10 300 м
[Cb cap As op]
+17.0 +15.3 90 +16 +16 1010.4 988.7 0.0
00 17.04 В 1 4000 м слаб. морось 10/5 1200 м
[Sc As op]
+17.0 +16.2 95 +18 +18 1010.6 1000.0 1
03 17.04 СВ 1 2000 м слаб. морось 10/5 1200 м
[Sc As op]
+18.0 +17.2 95 +19 +19 1012.0 1000.0 +16.5 0.0
06 17.04 ЮВ 1 4000 м слаб. морось 10/5 1200 м
[Sc As op]
+19.0 +17.4 90 +22 +22 комфорт 1013.7 1000.0 1
09 17.04 штиль 0 4000 м в посл. час дождь {морось} 9/4 1200 м
[Sc Ac As]
+21.0 +17.8 82 +25 +28 комфорт 1012.4 1000.0 0.0
12 17.04 СЗ 2 4000 м дым {дождь} 9/4 1200 м
[Sc Ac As]
+21.0 +16.0 73 +25 +26 комфорт 1011.8 1000.0 +21.5
15 17.04 ЮВ 2 4000 м дым {дождь} 9/4 1200 м
[Sc Ac As]
+20.5 +17.3 82 +25 +25 комфорт 1013.1 1000.0 0.0
18 17.04 штиль 0 4000 м дым {дождь} 9/4 1200 м
[Sc Ac As]
+18.5 +15.1 81 +19 +19 1014.4 992.8
21 17.04 С 1 4000 м дым 9/4 1200 м
[Sc Ac As]
+18.5 +16.9 90 +20 +20 1014.7 1000.0
00 18.04 СВ 1 4000 м дым 9/4 1200 м
[Sc Ac As]
+18.0 +17.2 95 +19 +19 1014.7 1000.0
03 18.04 штиль 0 4000 м дым 9/4 1200 м
[Sc Ac As]
+19.5 +16.2 81 +21 +23 комфорт 1016.0 1000.0 +17.7
06 18.04 СВ 2 4000 м дым 8/4 1200 м
[Sc Ac trans]
+23.0 +16.5 67 +28 +34 душно 1015.8 1000.0
09 18.04 СЗ 3 4000 м мгла 6/5 1200 м
[Sc diur, vesp]
+26.0 +14.4 49 +28 +34 жарко 1014.1 993.0
12 18.04 СВ 2 4000 м мгла 4/4 1200 м
[Sc diur, vesp]
+26.5 +14.0 46 +29 +31 жарко 1012.3 1000.0 +27.5
15 18.04 штиль 0 4000 м дым ясно +24.0 +15.8 60 +27 +27 жарко 1012.7 991.5
18 18.04 штиль 0 4000 м дым ясно +21.0 +16.0 73 +24 +24 комфорт 1013.4 1000.0
21 18.04 СЗ 1 4000 м дым ясно +20.0 +15.8 77 +24 +24 комфорт 1011.6 1000.0
00 19.04 СВ 1 4000 м дым ясно +19.0 +15.6 81 +22 +22 комфорт 1010.8 1000.0
03 19.04 СЗ 1 4000 м дым ясно +21.5 +16.6 74 +25 +32 комфорт 1011.4 1000.0 +17.5
06 19.04 СЗ 2 4000 м мгла 1/1 1200 м
[Sc]
+27.5 +15.3 47 +30 +47 жарко 1012.3 991.3
09 19.04 СЗ 1 10 км 4/0
[Ci fib]
+30.0 +13.4 36 +31 +50 жарко 1010.0 1000.0
12 19.04 СЗ 2 4000 м мгла 3/0
[Ci fib]
+30.5 +13.0 34 +32 +34 жарко 1008.4 987.7 +31.0
15 19.04 штиль 0 4000 м мгла ясно +27.5 +14.3 44 +30 +30 жарко 1009.1 1000.0
18 19.04 штиль 0 4000 м дым ясно +24.0 +17.6 67 +28 +28 душно 1009.6 1000.0
21 19.04 штиль 0 4000 м дым 5/0
[Ac trans]
+22.0 +17.2 74 +26 +26 душно 1008.6 1000.0
00 20.04 штиль 0 4000 м дым 3/0
[Ac trans]
+20.0 +16.7 81 +22 +22 комфорт 1007.4 986.0
03 20.04 штиль 0 2000 м дым 4/0
[Ci sp]
+24.0 +17.6 67 +28 +35 душно 1008.1 987.0 +19.5
06 20.04 Ю 1 4000 м мгла 3/0
[Ci fib]
+31.5 +15.5 38 +34 +54 опасность
солнечного
удара
1008.0 1000.0
09 20.04 СЗ 1 10 км 4/0
[Ac trans]
+34.5 +15.6 32 +36 +51 опасность
солнечного
удара
1006.5 1000.0
12 20.04 ЮВ 1 4000 м мгла 4/4 1200 м
[Sc]
+33.0 +15.5 35 +35 +37 душно 1005.0 1000.0 +35.1
15 20.04 штиль 0 4000 м дым ясно +29.0 +18.2 52 +34 +34 очень
душно
1005.8 1000.0
18 20.04 штиль 0 4000 м дым ясно +26.5 +18.8 63 +32 +32 очень
душно
1006.7 1000.0
21 20.04 СВ 1 4000 м дым ясно +24.0 +19.4 75 +29 +29 душно 1005.7 1000.0
00 21.04 штиль 0 4000 м дым ясно +23.0 +19.1 79 +29 +29 очень
душно
1005.5 1000.0
03 21.04 штиль 0 2000 м дым ясно +26.0 +18.2 62 +31 +38 очень
душно
1006.6 985.7 +22.0
06 21.04 ЮЗ 1 4000 м мгла ясно +33.5 +16.3 36 +36 +58 опасность
солнечного
удара
1006.8 1000.0
09 21.04 С 1 4000 м мгла 3/3 1200 м
[Sc diur, vesp]
+36.0 +15.6 30 +38 +51 опасность
солнечного
удара
1005.0 1000.0

 

Местоположение метеостанции Фейсалабад (Пакистан): широта 31.43 долгота 73.10 высота над уровнем моря 184 м.

В архиве по умолчанию представлена погода в Фейсалабаде за последнюю неделю. Архивные данные за месяц целиком и за предыдущие месяцы, начиная с января 2011 года, Вы можете получить, выбрав интересующий диапазон дат из раскрывающегося списка и нажав кнопку "Ввод!".


*Определитесь, кто Вы:
робот инопланетянин человек

Внимание! Время в таблицах - всемирное. Для получения местного времени необходимо прибавить поправку, которая равна 5 ч.

Смотрите также архив погоды в соседних городах и на ближайших метеорологических станциях:

Погода в Джанге (Пакистан) (76 км)
Погода в Окаре (Пакистан) (77 км)
Погода в Тоба Тек Сингх (Пакистан) (78 км)
Погода в Саргодхе (Пакистан) (80 км)
Погода в Саргодхе (Пакистан) (80 км)
Погода в Сахивале (Пакистан) (86 км)
Погода в Хафизабаде (Пакистан) (89 км)
Погода на Авиабазе Raifiqui (Пакистан) (112 км)
Погода в Лахоре (Пакистан) (117 км)
Погода в Нур Пур Тал (Пакистан) (124 км)

Пояснения к столбцам:

Ветер - указаны скорость ветра в м/с - средняя за 10 мин, порывы в срок и между сроками (в фигурных скобках) и направление, откуда дует ветер: С - северный, СВ - северо-восточный, В - восточный, ЮВ - юго-восточный, Ю - южный, ЮЗ - юго-западный, З - западный, СЗ - северо-западный.
Видимость - горизонтальная дальность видимости в метрах или километрах. При видимости от 1 до 10 км при отсутствии осадков обычно наблюдается дымка, при ухудшении видимости до 1 км и менее - туман. В сухую погоду видимость может ухудшаться дымом, пылью или мглою.
Явления - указаны атмосферные явления, наблюдавшиеся в срок или в последний час перед сроком; фигурными скобками обозначены явления, наблюдавшиеся между сроками (за 1-3 часа до срока); квадратными скобками обозначены град или гололедные отложения с указанием их диаметра в мм.
Облачность - указаны через наклонную черту общая и нижняя облачность в баллах и высота нижней границы облаков в метрах; квадратными скобками обозначены формы облаков: Ci - перистые, Cs - перисто-слоистые, Cc - перисто-кучевые, Ac - высококучевые, As - высокослоистые, Sc - слоисто-кучевые, Ns - слоисто-дождевые, Cu - кучевые, Cb - кучево-дождевые. Подробнее классификацию облаков см. в Атласе облаков (PDF).
T - Температура воздуха - температура, измеренная на высоте 2 м над землей.
Td - Температура точки росы - температура, при понижении до которой содержащийся в воздухе водяной пар достигнет насыщения.
f - Относительная влажность воздуха - влажноcть воздуха, измеренная на высоте 2 м над землей.
Te - Эффективная температура - температура, которую ощущает одетый по сезону человек в тени. Характеристика душности погоды. При расчете учитывается влияние влажности воздуха и скорости ветра на теплоощущения человека.
Tes - Эффективная температура на солнце - температура, которую ощущает человек, с поправкой на солнечный нагрев. Характеристика знойности погоды. Зависит от высоты солнца над горизонтом, облачности и скорости ветра. Ночью, в пасмурную погоду, а также при ветре 12 м/с и более поправка равна нулю.
P - Атмосферное давление - приведенное к уровню моря атмосферное давление.
Po - Атмосферное давление - измеренное на уровне метеостанции атмосферное давление.
Tmin - Минимальная температура - минимум температуры воздуха на высоте 2 м над землей.
Tmax - Максимальная температура - максимум температуры воздуха на высоте 2 м над землей.
R - Количество осадков - Количество выпавших осадков за период времени, мм. При наведении курсора мыши на число - период времени, за который выпало указанное количество осадков.
R24 - Количество осадков - Количество выпавших осадков за 24 часа, мм.
S - Снежный покров - Высота снежного покрова, см. При наведении курсора мыши на число - состояние снежного покрова и степень покрытия местности в баллах.